Wainwright, AK

3:42 AM AKDT on April 29, 2017 (GMT -0800)
Wainwright

Weather History for PAWI - April, 2014

Change the Weather History Date:

Wednesday, April 9, 2014

  Actual Average (PABR) Record (PABR)
Temperature  
Mean Temperature -17 °F -  
Max Temperature -9 °F 1 °F 33 °F (1990)
Min Temperature -25 °F -12 °F -36 °F (1991)
Degree Days  
Heating Degree Days 82    
Moisture  
Dew Point -25 °F    
Average Humidity 73    
Maximum Humidity 82    
Minimum Humidity 65    
Precipitation  
Precipitation 0.00 in - - ()
Sea Level Pressure  
Sea Level Pressure 30.00 in    
Wind  
Wind Speed 4 mph (East)    
Max Wind Speed 7 mph    
Max Gust Speed -    
Visibility 9 miles    
Events      
Averages and records for this station are not official NWS values.
T = Trace of Precipitation, MM = Missing Value Source: NWS Daily Summary

Daily Weather History Graph

Daily Weather History Graph

Search for Another Location

Airport or City:

Trip Planner

Search our weather history database for the weather conditions in past years. The results will help you decide how hot, cold, wet, or windy it might be!

Date:

Astronomy

Apr. 09, 2014 Rise Set
Actual Time 6:59 AM AKDT 10:25 PM AKDT
Civil Twilight 5:43 AM AKDT 11:44 PM AKDT
Nautical Twilight 3:13 AM AKDT 2:08 AM AKDT
Astronomical Twilight Sun does not set Sun does not set
Moon 2:36 PM AKDT (4/9) 6:51 AM AKDT (4/9)
Length of Visible Light 18h 00m
Length of Day
15h 26m
Waxing Gibbous, 73% of the Moon is Illuminated
Apr 9
Waxing Gibbous
Apr 14
Full
Apr 21
Last Quarter
Apr 28
New
May 6
First Quarter

Hourly Weather History & Observations

Time (AKDT) Temp. Windchill Dew Point Humidity Pressure Visibility Wind Dir Wind Speed Gust Speed Precip Events Conditions
12:53 AM -24.0 °F -37.9 °F -32.1 °F 66% 29.98 in 10.0 mi SE 4.6 mph - N/A   Clear
1:53 AM -24.0 °F -37.9 °F -31.0 °F 70% 29.99 in 10.0 mi SE 4.6 mph - N/A   Clear
2:53 AM -25.1 °F -39.1 °F -31.0 °F 74% 29.99 in 10.0 mi SE 4.6 mph - N/A   Clear
3:53 AM -24.0 °F - -29.9 °F 74% 29.99 in 10.0 mi Calm Calm - N/A   Clear
4:53 AM -25.1 °F -41.3 °F -31.0 °F 74% 29.99 in 10.0 mi SE 5.8 mph - N/A   Clear
5:53 AM -24.0 °F - -29.9 °F 74% 29.99 in 10.0 mi Calm Calm - N/A   Clear
6:53 AM -25.1 °F -36.5 °F -31.0 °F 74% 29.99 in 10.0 mi SE 3.5 mph - N/A   Clear
7:51 AM -23.8 °F -37.7 °F -29.2 °F 76% 29.99 in 10.0 mi East 4.6 mph - N/A   Partly Cloudy
7:53 AM -24.0 °F -37.9 °F -29.0 °F 77% 29.99 in 10.0 mi East 4.6 mph - N/A   Scattered Clouds
8:04 AM -25.6 °F -37.1 °F -31.0 °F 76% 29.99 in 10.0 mi East 3.5 mph - N/A   Mostly Cloudy
8:53 AM -24.0 °F -37.9 °F -27.9 °F 82% 30.00 in 10.0 mi ESE 4.6 mph - N/A   Overcast
9:51 AM -22.0 °F -33.0 °F -27.4 °F 76% 30.00 in 1.2 mi ESE 3.5 mph - N/A   Haze
9:53 AM -22.0 °F -33.0 °F -27.0 °F 77% 30.01 in 1.2 mi ESE 3.5 mph - N/A   Haze
10:18 AM -20.2 °F -30.9 °F -25.6 °F 76% 30.00 in 9.0 mi East 3.5 mph - N/A   Mostly Cloudy
10:25 AM -20.2 °F -30.9 °F -25.6 °F 76% 30.00 in 9.0 mi East 3.5 mph - N/A   Scattered Clouds
10:53 AM -18.9 °F -32.0 °F -25.1 °F 74% 30.01 in 10.0 mi East 4.6 mph - N/A   Partly Cloudy
11:53 AM -16.1 °F -28.6 °F -20.9 °F 79% 30.01 in 10.0 mi East 4.6 mph - N/A   Clear
12:53 PM -14.1 °F -23.9 °F -20.0 °F 75% 30.02 in 10.0 mi East 3.5 mph - N/A   Clear
1:53 PM -9.9 °F -19.2 °F -18.0 °F 68% 30.02 in 10.0 mi East 3.5 mph - N/A   Clear
2:53 PM -9.0 °F -18.2 °F -17.0 °F 68% 30.02 in 10.0 mi East 3.5 mph - N/A   Clear
3:53 PM -9.0 °F -20.4 °F -17.0 °F 68% 30.03 in 10.0 mi East 4.6 mph - N/A   Clear
4:53 PM -9.0 °F -20.4 °F -18.0 °F 65% 30.02 in 10.0 mi ENE 4.6 mph - N/A   Clear
5:53 PM -9.9 °F -19.2 °F -17.0 °F 71% 30.02 in 10.0 mi East 3.5 mph - N/A   Partly Cloudy
6:53 PM -11.0 °F -22.8 °F -18.9 °F 68% 30.01 in 10.0 mi East 4.6 mph - N/A   Clear
7:53 PM -13.0 °F -27.0 °F -20.9 °F 68% 30.01 in 10.0 mi ENE 5.8 mph - N/A   Clear
8:53 PM -15.0 °F -27.4 °F -22.0 °F 71% 30.01 in 10.0 mi East 4.6 mph - N/A   Scattered Clouds
9:53 PM -17.0 °F -31.7 °F -24.0 °F 70% 30.01 in 10.0 mi East 5.8 mph - N/A   Clear
10:53 PM -18.0 °F -34.7 °F -25.1 °F 70% 30.00 in 10.0 mi East 6.9 mph - N/A   Mostly Cloudy
11:53 PM -17.0 °F -27.2 °F -23.1 °F 74% 30.00 in 10.0 mi ESE 3.5 mph - N/A   Clear